STARLINK-4445, 53474

Orbit data source: Space-Track

STARLINK-4445, 53474 is a payload satellite owned by SpaceX/Seattle (US) in SSO that was launched on Fri, 12 Aug 2022 UTC via an FALCON 9 launch vehicle from the Air Force Western Test Range (AFWTR). Payload-class satellites include a variety of spacecraft equipped with specific instruments for various scientific and technological missions. These include communications satellites like Starlink; space stations such as the ISS; scientific satellites like the Hubble; Earth observation satellites from companies like Planet Labs, Umbra, and HawkEye 360; GPS; miniature CubeSats for education and research; and military/defense satellites.

Loading next visibility...
Identifier
53474, 2022-099K
Orbit
SSO
Country
Flag of USUS
Related business
Manufacturer
SpaceX/Seattle
Mission
Operational Commercial Communications
Bus & Motor
STARLINK, Unknown motor
Mass
300 kg wet, ~275 kg dry
Launch date (UTC)
2022-08-12 (3 years ago)
Launch vehicle
FALCON 9
Launch site
Air Force Western Test Range (AFWTR)
Object type
Payload
Rocket body
Debris
Shape & HBR
Box + 1 Pan, 10.1 m
Radar Cross Section
13.562 m², Large (>1 m²)

Expand to show TLE details & history
Last TLE update: 9 hours ago

TLE from 9 hours ago
0 STARLINK-4445
1 53474U 22099K   25293.60239464  .00003474  00000-0  27457-3 0  9996
2 53474  97.6053  53.0681 0004286  90.9396 269.2320 15.01297410174965
Epoch: 2025-10-20T14:27Z
TLE epoch observation values (Epoch: 2025-10-20T14:27:26.896Z)
Latitude
Longitude
166.90368°
Altitude
565.995 km
Speed
7.578 km/s
True Right ascension
03h 32m 16s
True Declination
0° 00' 00"
Sunlit
Object was in full shadow at epoch
Visualization orbit readout
Latitude
Unknown
Longitude
Unknown
Altitude
Unknown
Speed
Unknown
Apparent Right ascension
Unknown
Apparent Declination
Unknown
Sunlit
N/A
Visualization observer readout
Local Sidereal Time
18:16:48
Azimuth
Unknown
Elevation
Unknown
Doppler factor
Unknown
Orbital elements
Apogee altitude
562.868 km
Perigee altitude
556.92 km
Semi-major axis
6,938.031 km
Eccentricity
0.00043
Inclination
97.6053°
RAAN
53.0681°
Arg. of periapsis
90.9396°
True anomaly
269.18289°
Mean anomaly
269.232°
Eccentric anomaly
269.20745°
Mean motion
3.75568 °/min
Orbital period
95.85 mins
BSTAR
0.00027457
Loading maneuver chart data...
Computing Atmospheric mass density...
Loading historical data...
Loading historical data...
Loading historical data...
Loading historical data...
Loading historical data...
Loading historical data...
Loading historical data...

Documentation

Showing up to 5 results
|